TimeMDT,TemperatureF,Dew PointF,Humidity,Sea Level PressureIn,VisibilityMPH,Wind Direction,Wind SpeedMPH,Gust SpeedMPH,PrecipitationIn,Events,Conditions,WindDirDegrees,DateUTC
12:55 AM,41.0,27.0,57,29.97,10.0,North,5.8,-,N/A,,Clear,350,2013-03-28 06:55:00
1:55 AM,35.1,25.0,67,30.00,10.0,NW,4.6,-,N/A,,Partly Cloudy,320,2013-03-28 07:55:00
2:55 AM,35.1,25.0,67,30.01,10.0,Calm,Calm,-,N/A,,Clear,0,2013-03-28 08:55:00
3:55 AM,32.0,23.0,69,30.03,10.0,Calm,Calm,-,N/A,,Clear,0,2013-03-28 09:55:00
4:55 AM,30.0,23.0,75,30.04,10.0,Calm,Calm,-,N/A,,Clear,0,2013-03-28 10:55:00
5:55 AM,28.9,21.9,75,30.06,10.0,Calm,Calm,-,N/A,,Clear,0,2013-03-28 11:55:00
6:55 AM,28.0,21.0,75,30.07,10.0,Calm,Calm,-,N/A,,Clear,0,2013-03-28 12:55:00
7:55 AM,28.9,21.9,75,30.10,10.0,Calm,Calm,-,N/A,,Clear,0,2013-03-28 13:55:00
8:55 AM,32.0,23.0,69,30.10,10.0,Calm,Calm,-,N/A,,Scattered Clouds,0,2013-03-28 14:55:00
9:55 AM,39.0,26.1,60,30.09,10.0,Calm,Calm,-,N/A,,Overcast,0,2013-03-28 15:55:00
10:55 AM,43.0,26.1,51,30.07,10.0,NW,3.5,-,N/A,,Clear,320,2013-03-28 16:55:00
11:55 AM,46.9,26.1,44,30.05,10.0,Calm,Calm,-,N/A,,Mostly Cloudy,0,2013-03-28 17:55:00
12:55 PM,51.1,26.1,38,30.02,10.0,Calm,Calm,-,N/A,,Overcast,0,2013-03-28 18:55:00
1:55 PM,55.0,25.0,31,30.00,10.0,NNE,3.5,-,N/A,,Mostly Cloudy,30,2013-03-28 19:55:00
2:55 PM,57.9,19.9,23,29.96,10.0,ESE,11.5,-,N/A,,Mostly Cloudy,120,2013-03-28 20:55:00
3:55 PM,57.9,19.0,22,29.96,10.0,ESE,5.8,-,N/A,,Overcast,120,2013-03-28 21:55:00
4:55 PM,60.1,17.1,19,29.94,10.0,NNE,4.6,-,N/A,,Overcast,20,2013-03-28 22:55:00
5:55 PM,59.0,16.0,19,29.95,10.0,SW,5.8,-,N/A,,Partly Cloudy,230,2013-03-28 23:55:00
6:55 PM,57.0,19.0,23,29.97,10.0,West,9.2,-,N/A,,Partly Cloudy,280,2013-03-29 00:55:00
8:55 PM,53.1,21.0,29,30.00,10.0,WSW,8.1,-,N/A,,Partly Cloudy,250,2013-03-29 02:55:00
9:55 PM,46.0,23.0,40,30.01,10.0,Calm,Calm,-,N/A,,Overcast,0,2013-03-29 03:55:00
10:55 PM,45.0,24.1,44,30.02,10.0,Calm,Calm,-,N/A,,Overcast,0,2013-03-29 04:55:00
11:55 PM,48.0,24.1,39,30.01,10.0,Calm,Calm,-,N/A,,Overcast,0,2013-03-29 05:55:00